QPF
0.00 0.00 0.00 0.01 0.02 0.02 0.04 0.04 0.05 0.06 0.04 0.05 0.08 0.08 0.11 0.11 0.10 0.09 0.08 0.08 0.08 0.11 0.12 0.09 0.10 0.09 0.09 0.10 0.08 0.09 0.10 0.11 0.10 0.09 0.06 0.04 0.03 0.03 0.03 0.03 0.03 0.04 0.05
0.00 0.00 0.01 0.01 0.01 0.01 0.04 0.04 0.05 0.05 0.05 0.08 0.13 0.09 0.10 0.09 0.10 0.10 0.11 0.09 0.07 0.09 0.08 0.10 0.10 0.11 0.11 0.10 0.09 0.09 0.08 0.09 0.09 0.11 0.10 0.08 0.07 0.03 0.01 0.02 0.03 0.03 0.04
0.01 0.01 0.01 0.01 0.01 0.01 0.02 0.03 0.05 0.06 0.07 0.08 0.11 0.10 0.10 0.08 0.10 0.12 0.10 0.08 0.06 0.07 0.08 0.08 0.10 0.11 0.08 0.09 0.11 0.10 0.08 0.09 0.08 0.08 0.10 0.11 0.09 0.06 0.03 0.02 0.02 0.02 0.02
0.00 0.01 0.02 0.01 0.02 0.03 0.02 0.03 0.04 0.07 0.07 0.09 0.09 0.11 0.11 0.09 0.13 0.14 0.11 0.11 0.09 0.07 0.08 0.08 0.08 0.08 0.07 0.09 0.08 0.08 0.08 0.09 0.09 0.08 0.07 0.09 0.09 0.09 0.05 0.03 0.02 0.02 0.02
0.01 0.01 0.01 0.02 0.02 0.03 0.03 0.02 0.04 0.05 0.05 0.05 0.06 0.09 0.09 0.08 0.11 0.18 0.13 0.13 0.13 0.10 0.09 0.09 0.09 0.09 0.08 0.08 0.07 0.09 0.09 0.07 0.08 0.09 0.08 0.08 0.08 0.07 0.06 0.05 0.05 0.03 0.02
0.01 0.01 0.01 0.01 0.02 0.04 0.05 0.03 0.04 0.04 0.03 0.04 0.05 0.06 0.06 0.07 0.07 0.09 0.08 0.07 0.07 0.08 0.08 0.08 0.08 0.07 0.07 0.08 0.08 0.08 0.08 0.08 0.09 0.10 0.08 0.09 0.09 0.08 0.08 0.07 0.06 0.05 0.03
0.00 0.00 0.00 0.01 0.01 0.01 0.02 0.02 0.02 0.02 0.03 0.04 0.05 0.05 0.05 0.05 0.06 0.06 0.04 0.04 0.04 0.05 0.07 0.06 0.08 0.06 0.06 0.07 0.07 0.08 0.09 0.10 0.10 0.09 0.09 0.08 0.08 0.09 0.09 0.09 0.06 0.03 0.02
0.00 0.00 0.00 0.00 0.00 0.00 0.01 0.01 0.01 0.02 0.02 0.03 0.03 0.04 0.04 0.04 0.04 0.05 0.04 0.03 0.04 0.04 0.04 0.05 0.06 0.05 0.05 0.05 0.06 0.07 0.07 0.07 0.08 0.07 0.08 0.09 0.09 0.09 0.08 0.08 0.08 0.05 0.04
0.00 0.00 0.00 0.00 0.00 0.00 0.00 0.00 0.01 0.02 0.02 0.03 0.03 0.05 0.05 0.04 0.04 0.05 0.05 0.03 0.04 0.03 0.03 0.04 0.05 0.04 0.05 0.06 0.06 0.06 0.06 0.07 0.07 0.07 0.08 0.08 0.09 0.09 0.09 0.09 0.09 0.10 0.08
0.00 0.00 0.00 0.00 0.01 0.00 0.00 0.00 0.01 0.01 0.02 0.03 0.04 0.05 0.07 0.06 0.05 0.06 0.06 0.04 0.04 0.03 0.04 0.05 0.05 0.04 0.05 0.04 0.04 0.05 0.06 0.05 0.06 0.07 0.08 0.08 0.08 0.08 0.08 0.08 0.08 0.10 0.09
0.00 0.00 0.00 0.02 0.01 0.00 0.00 0.01 0.01 0.02 0.02 0.03 0.03 0.04 0.06 0.06 0.05 0.05 0.07 0.05 0.03 0.03 0.04 0.04 0.04 0.03 0.04 0.04 0.04 0.05 0.05 0.05 0.05 0.05 0.05 0.06 0.07 0.08 0.07 0.07 0.07 0.07 0.07
0.00 0.00 0.00 0.02 0.02 0.01 0.00 0.01 0.02 0.02 0.03 0.03 0.03 0.04 0.06 0.04 0.03 0.03 0.04 0.03 0.03 0.02 0.03 0.04 0.05 0.04 0.04 0.05 0.05 0.05 0.05 0.05 0.04 0.04 0.04 0.05 0.06 0.06 0.07 0.07 0.06 0.06 0.08
0.00 0.00 0.00 0.01 0.01 0.01 0.01 0.02 0.03 0.03 0.03 0.04 0.04 0.05 0.05 0.05 0.04 0.04 0.04 0.04 0.04 0.03 0.03 0.05 0.05 0.05 0.04 0.04 0.04 0.05 0.05 0.04 0.04 0.04 0.05 0.06 0.07 0.07 0.07 0.06 0.06 0.06 0.07
0.00 0.00 0.00 0.00 0.00 0.00 0.01 0.01 0.02 0.04 0.04 0.03 0.04 0.06 0.06 0.06 0.05 0.05 0.05 0.05 0.06 0.06 0.06 0.06 0.07 0.07 0.05 0.05 0.05 0.05 0.05 0.05 0.05 0.05 0.05 0.06 0.05 0.06 0.06 0.05 0.06 0.07 0.08
0.00 0.00 0.00 0.00 0.00 0.00 0.01 0.01 0.01 0.02 0.02 0.01 0.01 0.01 0.03 0.05 0.04 0.02 0.02 0.03 0.06 0.09 0.10 0.08 0.08 0.07 0.06 0.05 0.05 0.07 0.07 0.09 0.08 0.07 0.06 0.05 0.05 0.05 0.05 0.04 0.05 0.06 0.06
0.00 0.00 0.00 0.00 0.01 0.01 0.01 0.01 0.01 0.01 0.01 0.01 0.01 0.01 0.01 0.01 0.02 0.01 0.02 0.03 0.04 0.05 0.07 0.08 0.09 0.06 0.04 0.04 0.05 0.07 0.09 0.09 0.08 0.07 0.06 0.05 0.05 0.05 0.05 0.05 0.04 0.05 0.06
0.00 0.00 0.00 0.00 0.00 0.01 0.01 0.01 0.01 0.01 0.00 0.00 0.01 0.01 0.01 0.01 0.01 0.01 0.02 0.03 0.04 0.05 0.06 0.05 0.05 0.04 0.04 0.04 0.05 0.05 0.07 0.09 0.07 0.07 0.08 0.06 0.04 0.04 0.03 0.04 0.03 0.03 0.02
0.01 0.01 0.00 0.00 0.01 0.02 0.02 0.02 0.01 0.01 0.01 0.01 0.01 0.01 0.01 0.02 0.02 0.03 0.05 0.05 0.05 0.05 0.05 0.05 0.05 0.05 0.04 0.04 0.04 0.04 0.05 0.05 0.05 0.04 0.03 0.03 0.03 0.02 0.02 0.03 0.03 0.02 0.02
0.00 0.00 0.00 0.01 0.03 0.04 0.03 0.03 0.02 0.01 0.01 0.01 0.01 0.01 0.01 0.02 0.02 0.03 0.04 0.05 0.06 0.06 0.05 0.04 0.05 0.06 0.06 0.07 0.06 0.06 0.06 0.05 0.04 0.03 0.02 0.02 0.02 0.02 0.02 0.03 0.03 0.03 0.02
0.01 0.01 0.01 0.04 0.05 0.04 0.05 0.05 0.03 0.02 0.01 0.01 0.02 0.01 0.02 0.02 0.03 0.04 0.04 0.04 0.05 0.07 0.07 0.04 0.04 0.04 0.07 0.11 0.13 0.10 0.07 0.06 0.04 0.03 0.04 0.03 0.03 0.04 0.04 0.04 0.04 0.03 0.03
0.01 0.01 0.02 0.03 0.04 0.04 0.05 0.04 0.03 0.02 0.02 0.02 0.02 0.02 0.02 0.03 0.03 0.04 0.04 0.04 0.04 0.05 0.05 0.04 0.03 0.04 0.05 0.06 0.09 0.09 0.08 0.08 0.08 0.08 0.07 0.07 0.06 0.06 0.05 0.04 0.04 0.04 0.04
0.03 0.03 0.03 0.04 0.05 0.06 0.06 0.05 0.03 0.03 0.03 0.03 0.04 0.04 0.05 0.06 0.04 0.04 0.04 0.03 0.03 0.03 0.03 0.04 0.04 0.03 0.03 0.03 0.03 0.03 0.03 0.04 0.05 0.04 0.04 0.04 0.03 0.02 0.02 0.02 0.02 0.03 0.03
0.03 0.04 0.04 0.04 0.05 0.05 0.05 0.06 0.04 0.03 0.03 0.03 0.04 0.08 0.11 0.11 0.08 0.05 0.04 0.03 0.03 0.03 0.03 0.03 0.02 0.02 0.02 0.02 0.01 0.01 0.02 0.02 0.02 0.02 0.02 0.02 0.01 0.01 0.01 0.01 0.01 0.01 0.01
0.02 0.04 0.04 0.05 0.04 0.03 0.04 0.04 0.03 0.03 0.03 0.02 0.02 0.02 0.04 0.06 0.05 0.04 0.03 0.03 0.03 0.03 0.03 0.02 0.02 0.02 0.02 0.02 0.01 0.01 0.01 0.01 0.01 0.00 0.01 0.00 0.00 0.00 0.00 0.00 0.01 0.01 0.01
0.03 0.04 0.04 0.03 0.03 0.02 0.02 0.03 0.03 0.02 0.02 0.02 0.01 0.01 0.02 0.01 0.01 0.01 0.02 0.02 0.02 0.02 0.02 0.03 0.03 0.02 0.02 0.01 0.01 0.01 0.01 0.00 0.00 0.00 0.00 0.00 0.00 0.00 0.00 0.00 0.00 0.01 0.01
0.03 0.03 0.03 0.03 0.04 0.03 0.03 0.03 0.02 0.02 0.02 0.02 0.02 0.02 0.02 0.01 0.01 0.01 0.01 0.01 0.01 0.01 0.01 0.01 0.01 0.01 0.01 0.01 0.01 0.00 0.00 0.00 0.00 0.00 0.00 0.00 0.00 0.00 0.00 0.01 0.00 0.01 0.01
MSLP
1013.18 1013.60 1013.94 1014.23 1014.49 1014.76 1015.07 1015.42 1015.80 1016.20 1016.57 1016.88 1017.12 1017.27 1017.34 1017.38 1017.40 1017.44 1017.52 1017.66 1017.85 1018.08 1018.33 1018.58 1018.82 1019.05 1019.25 1019.44 1019.59 1019.71 1019.79 1019.80 1019.74 1019.59 1019.36 1019.07 1018.73 1018.39 1018.06 1017.80 1017.63 1017.55 1017.56
1013.18 1013.58 1013.90 1014.16 1014.38 1014.60 1014.85 1015.16 1015.53 1015.94 1016.34 1016.72 1017.04 1017.27 1017.42 1017.49 1017.52 1017.54 1017.57 1017.63 1017.74 1017.89 1018.08 1018.30 1018.52 1018.74 1018.95 1019.15 1019.32 1019.45 1019.53 1019.56 1019.51 1019.38 1019.18 1018.90 1018.58 1018.24 1017.90 1017.60 1017.35 1017.18 1017.09
1013.13 1013.52 1013.83 1014.06 1014.25 1014.42 1014.63 1014.90 1015.25 1015.66 1016.09 1016.53 1016.91 1017.22 1017.43 1017.55 1017.59 1017.59 1017.58 1017.58 1017.61 1017.69 1017.82 1017.99 1018.18 1018.39 1018.60 1018.80 1018.97 1019.11 1019.20 1019.24 1019.22 1019.12 1018.96 1018.73 1018.45 1018.13 1017.80 1017.48 1017.17 1016.91 1016.71
1013.02 1013.41 1013.71 1013.93 1014.10 1014.24 1014.41 1014.65 1014.97 1015.37 1015.82 1016.29 1016.73 1017.09 1017.36 1017.53 1017.59 1017.58 1017.53 1017.48 1017.46 1017.48 1017.55 1017.68 1017.85 1018.04 1018.23 1018.43 1018.59 1018.73 1018.83 1018.88 1018.88 1018.82 1018.71 1018.55 1018.33 1018.06 1017.75 1017.42 1017.07 1016.73 1016.41
1012.87 1013.25 1013.55 1013.77 1013.93 1014.05 1014.20 1014.39 1014.68 1015.06 1015.51 1016.00 1016.47 1016.88 1017.20 1017.40 1017.49 1017.49 1017.43 1017.35 1017.29 1017.27 1017.31 1017.40 1017.54 1017.71 1017.89 1018.07 1018.22 1018.35 1018.44 1018.49 1018.51 1018.49 1018.44 1018.34 1018.19 1017.98 1017.72 1017.39 1017.02 1016.61 1016.19
1012.69 1013.06 1013.37 1013.60 1013.75 1013.86 1013.98 1014.15 1014.40 1014.75 1015.19 1015.67 1016.16 1016.60 1016.96 1017.19 1017.31 1017.33 1017.28 1017.20 1017.12 1017.08 1017.10 1017.17 1017.29 1017.44 1017.60 1017.76 1017.89 1017.99 1018.06 1018.11 1018.13 1018.14 1018.13 1018.09 1018.01 1017.87 1017.66 1017.36 1016.98 1016.53 1016.03
1012.50 1012.86 1013.17 1013.41 1013.57 1013.67 1013.77 1013.91 1014.14 1014.45 1014.86 1015.34 1015.83 1016.28 1016.66 1016.93 1017.09 1017.13 1017.10 1017.04 1016.97 1016.93 1016.94 1017.01 1017.12 1017.25 1017.39 1017.51 1017.61 1017.68 1017.72 1017.74 1017.76 1017.78 1017.80 1017.81 1017.79 1017.72 1017.56 1017.30 1016.94 1016.47 1015.92
1012.34 1012.68 1012.99 1013.23 1013.39 1013.50 1013.59 1013.71 1013.91 1014.20 1014.58 1015.03 1015.52 1015.98 1016.38 1016.67 1016.86 1016.94 1016.95 1016.91 1016.86 1016.84 1016.86 1016.93 1017.03 1017.15 1017.27 1017.37 1017.43 1017.45 1017.45 1017.44 1017.43 1017.44 1017.47 1017.51 1017.54 1017.51 1017.41 1017.20 1016.87 1016.41 1015.85
1012.23 1012.54 1012.84 1013.07 1013.24 1013.35 1013.44 1013.55 1013.73 1014.00 1014.37 1014.81 1015.28 1015.74 1016.15 1016.47 1016.69 1016.81 1016.85 1016.84 1016.83 1016.83 1016.87 1016.95 1017.06 1017.17 1017.27 1017.34 1017.36 1017.34 1017.29 1017.24 1017.19 1017.18 1017.20 1017.24 1017.29 1017.30 1017.24 1017.08 1016.78 1016.36 1015.81
1012.19 1012.46 1012.73 1012.96 1013.12 1013.23 1013.33 1013.45 1013.63 1013.90 1014.25 1014.68 1015.15 1015.62 1016.03 1016.37 1016.61 1016.76 1016.83 1016.86 1016.88 1016.91 1016.97 1017.07 1017.18 1017.30 1017.39 1017.44 1017.43 1017.38 1017.29 1017.18 1017.09 1017.04 1017.03 1017.05 1017.10 1017.12 1017.09 1016.96 1016.70 1016.31 1015.80
1012.24 1012.47 1012.70 1012.90 1013.05 1013.16 1013.27 1013.40 1013.60 1013.87 1014.23 1014.66 1015.13 1015.60 1016.02 1016.37 1016.62 1016.79 1016.89 1016.95 1016.99 1017.05 1017.14 1017.26 1017.40 1017.53 1017.62 1017.67 1017.65 1017.57 1017.44 1017.29 1017.16 1017.06 1017.00 1016.99 1017.01 1017.03 1016.99 1016.88 1016.64 1016.28 1015.80
1012.40 1012.57 1012.75 1012.90 1013.03 1013.14 1013.25 1013.40 1013.61 1013.90 1014.27 1014.71 1015.18 1015.64 1016.06 1016.41 1016.67 1016.86 1016.97 1017.05 1017.13 1017.22 1017.33 1017.48 1017.64 1017.79 1017.91 1017.97 1017.95 1017.87 1017.73 1017.56 1017.39 1017.24 1017.14 1017.08 1017.05 1017.03 1016.97 1016.84 1016.61 1016.26 1015.80
1012.68 1012.78 1012.88 1012.98 1013.07 1013.16 1013.27 1013.42 1013.64 1013.95 1014.32 1014.76 1015.22 1015.68 1016.09 1016.43 1016.69 1016.88 1017.01 1017.11 1017.21 1017.32 1017.47 1017.65 1017.85 1018.04 1018.19 1018.28 1018.29 1018.22 1018.09 1017.91 1017.72 1017.54 1017.39 1017.28 1017.19 1017.12 1017.01 1016.85 1016.59 1016.24 1015.77
1013.09 1013.10 1013.12 1013.14 1013.17 1013.22 1013.30 1013.44 1013.66 1013.95 1014.32 1014.75 1015.19 1015.63 1016.02 1016.35 1016.60 1016.79 1016.92 1017.04 1017.16 1017.30 1017.49 1017.70 1017.94 1018.17 1018.37 1018.50 1018.56 1018.53 1018.43 1018.27 1018.07 1017.87 1017.69 1017.53 1017.39 1017.25 1017.09 1016.87 1016.57 1016.18 1015.70
1013.60 1013.52 1013.45 1013.38 1013.33 1013.31 1013.34 1013.44 1013.63 1013.89 1014.23 1014.62 1015.03 1015.43 1015.79 1016.09 1016.33 1016.52 1016.66 1016.79 1016.93 1017.10 1017.32 1017.57 1017.85 1018.13 1018.38 1018.57 1018.68 1018.71 1018.65 1018.52 1018.35 1018.15 1017.95 1017.76 1017.57 1017.37 1017.15 1016.87 1016.52 1016.09 1015.57
1014.19 1014.02 1013.85 1013.68 1013.54 1013.43 1013.39 1013.43 1013.55 1013.76 1014.04 1014.36 1014.72 1015.07 1015.39 1015.66 1015.88 1016.05 1016.20 1016.35 1016.51 1016.71 1016.96 1017.24 1017.56 1017.88 1018.17 1018.42 1018.59 1018.67 1018.67 1018.59 1018.45 1018.28 1018.09 1017.88 1017.66 1017.42 1017.15 1016.82 1016.43 1015.95 1015.41
1014.79 1014.55 1014.29 1014.03 1013.79 1013.59 1013.46 1013.41 1013.44 1013.56 1013.76 1014.01 1014.29 1014.57 1014.84 1015.07 1015.27 1015.44 1015.60 1015.75 1015.94 1016.16 1016.43 1016.74 1017.08 1017.43 1017.76 1018.04 1018.26 1018.40 1018.46 1018.44 1018.36 1018.22 1018.05 1017.85 1017.63 1017.37 1017.07 1016.72 1016.29 1015.80 1015.25
1015.35 1015.06 1014.73 1014.39 1014.07 1013.78 1013.55 1013.40 1013.34 1013.36 1013.45 1013.61 1013.80 1014.01 1014.22 1014.42 1014.59 1014.76 1014.92 1015.09 1015.29 1015.53 1015.81 1016.13 1016.48 1016.84 1017.19 1017.50 1017.75 1017.94 1018.05 1018.09 1018.06 1017.98 1017.85 1017.68 1017.47 1017.23 1016.93 1016.57 1016.15 1015.67 1015.13
1015.80 1015.49 1015.13 1014.74 1014.35 1013.99 1013.68 1013.44 1013.27 1013.19 1013.18 1013.23 1013.34 1013.48 1013.63 1013.79 1013.95 1014.10 1014.27 1014.45 1014.66 1014.90 1015.18 1015.50 1015.84 1016.19 1016.54 1016.86 1017.13 1017.35 1017.50 1017.59 1017.62 1017.60 1017.52 1017.40 1017.23 1017.01 1016.74 1016.42 1016.03 1015.59 1015.10
1016.12 1015.81 1015.44 1015.04 1014.62 1014.21 1013.84 1013.51 1013.26 1013.09 1012.98 1012.95 1012.97 1013.04 1013.14 1013.26 1013.40 1013.55 1013.71 1013.90 1014.11 1014.35 1014.61 1014.91 1015.24 1015.57 1015.90 1016.21 1016.49 1016.73 1016.92 1017.05 1017.13 1017.16 1017.13 1017.06 1016.94 1016.78 1016.56 1016.28 1015.95 1015.58 1015.17
1016.27 1016.00 1015.66 1015.26 1014.84 1014.41 1014.00 1013.62 1013.30 1013.05 1012.87 1012.75 1012.70 1012.71 1012.76 1012.85 1012.97 1013.11 1013.27 1013.45 1013.65 1013.88 1014.13 1014.41 1014.70 1015.00 1015.31 1015.61 1015.89 1016.14 1016.36 1016.53 1016.65 1016.72 1016.75 1016.73 1016.66 1016.54 1016.38 1016.17 1015.92 1015.64 1015.33
1016.29 1016.06 1015.76 1015.39 1014.99 1014.56 1014.13 1013.73 1013.36 1013.05 1012.81 1012.63 1012.52 1012.47 1012.47 1012.53 1012.62 1012.75 1012.90 1013.07 1013.26 1013.47 1013.70 1013.95 1014.22 1014.50 1014.79 1015.08 1015.36 1015.62 1015.86 1016.06 1016.22 1016.33 1016.40 1016.42 1016.39 1016.32 1016.21 1016.06 1015.89 1015.70 1015.51
1016.19 1016.01 1015.75 1015.42 1015.04 1014.63 1014.20 1013.78 1013.38 1013.03 1012.73 1012.50 1012.33 1012.23 1012.20 1012.22 1012.28 1012.38 1012.51 1012.66 1012.84 1013.03 1013.24 1013.48 1013.73 1014.00 1014.29 1014.58 1014.87 1015.15 1015.41 1015.64 1015.83 1015.97 1016.07 1016.11 1016.12 1016.08 1016.01 1015.91 1015.81 1015.71 1015.62
1016.03 1015.87 1015.64 1015.35 1014.99 1014.59 1014.17 1013.74 1013.32 1012.93 1012.59 1012.30 1012.08 1011.93 1011.84 1011.82 1011.85 1011.91 1012.02 1012.15 1012.31 1012.49 1012.69 1012.92 1013.17 1013.45 1013.75 1014.06 1014.37 1014.68 1014.97 1015.23 1015.45 1015.62 1015.73 1015.79 1015.81 1015.78 1015.74 1015.68 1015.63 1015.59 1015.58
1015.84 1015.69 1015.47 1015.19 1014.84 1014.45 1014.02 1013.57 1013.12 1012.70 1012.31 1011.98 1011.70 1011.49 1011.35 1011.28 1011.26 1011.29 1011.36 1011.48 1011.62 1011.79 1012.00 1012.23 1012.50 1012.80 1013.13 1013.47 1013.83 1014.17 1014.50 1014.79 1015.04 1015.22 1015.35 1015.42 1015.43 1015.41 1015.37 1015.33 1015.30 1015.31 1015.36
1015.67 1015.50 1015.26 1014.97 1014.62 1014.21 1013.76 1013.29 1012.82 1012.35 1011.91 1011.52 1011.19 1010.92 1010.73 1010.60 1010.53 1010.52 1010.57 1010.66 1010.79 1010.96 1011.18 1011.43 1011.73 1012.07 1012.43 1012.82 1013.22 1013.61 1013.98 1014.31 1014.58 1014.78 1014.92 1014.99 1015.00 1014.97 1014.93 1014.88 1014.86 1014.88 1014.96
Thickness
5817 5813 5807 5802 5796 5790 5784 5778 5773 5769 5764 5760 5757 5754 5752 5752 5751 5749 5747 5746 5745 5744 5743 5745 5742 5742 5742 5740 5740 5739 5738 5738 5740 5739 5738 5741 5743 5743 5742 5742 5742 5742 5739
5816 5811 5807 5803 5798 5792 5786 5780 5775 5772 5767 5764 5761 5758 5755 5754 5754 5752 5749 5747 5746 5745 5745 5744 5744 5743 5741 5740 5739 5738 5738 5739 5740 5737 5734 5733 5738 5741 5744 5742 5741 5740 5739
5817 5812 5807 5804 5800 5794 5789 5784 5779 5775 5770 5767 5762 5759 5755 5754 5753 5752 5750 5749 5748 5746 5745 5745 5744 5743 5743 5741 5739 5739 5737 5736 5739 5739 5735 5730 5729 5735 5741 5740 5740 5738 5737
5822 5815 5810 5805 5801 5797 5793 5787 5781 5777 5772 5768 5764 5760 5755 5752 5753 5753 5752 5750 5748 5747 5746 5745 5744 5743 5743 5742 5741 5742 5740 5737 5735 5737 5737 5736 5736 5730 5730 5735 5738 5737 5735
5824 5818 5813 5808 5804 5800 5795 5789 5783 5777 5774 5770 5766 5760 5758 5757 5756 5754 5752 5750 5749 5747 5747 5745 5744 5743 5743 5742 5741 5740 5739 5739 5737 5736 5736 5735 5734 5733 5729 5727 5730 5733 5734
5824 5819 5815 5810 5804 5801 5796 5790 5783 5777 5774 5770 5767 5762 5759 5757 5754 5752 5751 5751 5750 5749 5748 5746 5744 5743 5743 5742 5741 5740 5739 5738 5737 5736 5735 5733 5732 5731 5730 5727 5726 5727 5730
5823 5817 5813 5808 5803 5799 5794 5790 5783 5776 5774 5771 5767 5763 5760 5757 5754 5752 5751 5750 5751 5750 5747 5747 5744 5743 5742 5742 5741 5739 5739 5737 5736 5735 5735 5735 5734 5734 5731 5727 5726 5725 5727
5824 5818 5814 5809 5803 5799 5794 5789 5782 5776 5774 5771 5767 5764 5761 5759 5757 5754 5753 5751 5751 5751 5749 5746 5744 5743 5742 5741 5740 5740 5739 5737 5736 5736 5735 5734 5734 5734 5732 5728 5724 5721 5722
5822 5817 5813 5809 5804 5798 5793 5789 5782 5778 5774 5771 5767 5764 5761 5759 5757 5754 5752 5752 5750 5750 5747 5746 5744 5742 5741 5740 5739 5738 5737 5736 5735 5735 5734 5733 5733 5733 5732 5729 5726 5720 5717
5820 5816 5812 5808 5805 5800 5794 5789 5784 5779 5774 5771 5767 5764 5761 5758 5755 5753 5751 5750 5749 5747 5746 5744 5743 5741 5740 5739 5737 5736 5735 5733 5732 5731 5730 5729 5730 5730 5729 5728 5726 5723 5719
5819 5815 5811 5808 5804 5800 5794 5788 5783 5778 5773 5769 5765 5762 5759 5757 5754 5751 5749 5748 5746 5744 5743 5742 5741 5739 5738 5737 5735 5733 5732 5730 5728 5728 5727 5726 5726 5726 5726 5724 5723 5720 5717
5818 5815 5810 5805 5801 5797 5793 5787 5782 5777 5773 5769 5764 5760 5757 5755 5752 5750 5748 5746 5744 5742 5740 5739 5737 5736 5736 5734 5732 5730 5729 5727 5725 5724 5723 5722 5722 5721 5720 5719 5718 5716 5713
5815 5811 5807 5802 5798 5794 5790 5786 5781 5777 5773 5767 5762 5758 5755 5752 5749 5747 5745 5743 5741 5739 5738 5736 5734 5733 5731 5730 5728 5726 5725 5723 5721 5720 5718 5717 5717 5715 5715 5714 5713 5712 5710
5811 5808 5803 5799 5796 5791 5787 5783 5778 5775 5771 5766 5761 5757 5753 5750 5747 5744 5742 5740 5738 5736 5734 5732 5730 5729 5727 5725 5723 5722 5720 5718 5717 5715 5714 5712 5711 5710 5710 5709 5707 5705 5703
5807 5805 5801 5797 5793 5788 5784 5780 5775 5772 5768 5764 5759 5755 5751 5748 5745 5741 5739 5737 5735 5733 5730 5727 5725 5724 5722 5720 5717 5716 5715 5713 5711 5710 5708 5707 5705 5704 5703 5703 5701 5699 5697
5806 5804 5800 5795 5790 5785 5781 5777 5772 5768 5765 5760 5756 5753 5750 5746 5742 5739 5736 5733 5731 5728 5725 5722 5720 5718 5716 5712 5710 5709 5709 5708 5706 5704 5703 5702 5700 5698 5695 5694 5692 5691 5691
5806 5802 5799 5794 5789 5784 5779 5774 5770 5766 5761 5757 5753 5749 5746 5743 5740 5737 5733 5730 5727 5723 5720 5718 5715 5712 5708 5704 5703 5701 5702 5701 5700 5698 5697 5697 5695 5692 5691 5688 5685 5683 5682
5804 5801 5798 5793 5788 5783 5778 5772 5767 5761 5757 5753 5749 5746 5743 5739 5736 5732 5729 5725 5723 5720 5717 5713 5711 5707 5703 5698 5696 5695 5696 5695 5693 5692 5690 5688 5687 5685 5683 5682 5680 5678 5676
5801 5799 5797 5792 5785 5779 5775 5770 5763 5758 5753 5749 5744 5742 5739 5734 5730 5727 5723 5721 5718 5715 5712 5709 5706 5702 5697 5692 5690 5688 5690 5689 5687 5685 5683 5681 5678 5674 5673 5673 5672 5671 5669
5794 5792 5791 5786 5779 5774 5771 5765 5760 5754 5749 5745 5741 5738 5734 5730 5725 5721 5718 5715 5712 5710 5707 5703 5700 5697 5693 5687 5684 5682 5685 5683 5682 5679 5676 5672 5670 5667 5665 5666 5665 5663 5661
5784 5784 5782 5778 5773 5769 5765 5758 5755 5750 5747 5742 5737 5733 5729 5725 5720 5716 5713 5710 5707 5703 5700 5696 5693 5690 5686 5681 5678 5676 5678 5677 5676 5674 5671 5666 5661 5658 5657 5656 5656 5652 5650
5773 5774 5771 5767 5765 5762 5756 5752 5748 5745 5741 5736 5731 5727 5723 5720 5715 5709 5706 5703 5700 5696 5693 5690 5686 5683 5679 5674 5671 5669 5668 5668 5668 5666 5663 5658 5652 5650 5648 5647 5644 5642 5642
5762 5762 5760 5757 5754 5752 5749 5744 5741 5738 5733 5729 5725 5720 5716 5712 5707 5703 5699 5696 5693 5692 5689 5685 5681 5677 5673 5668 5663 5661 5659 5658 5659 5657 5652 5648 5644 5642 5641 5637 5635 5635 5636
5750 5749 5748 5745 5742 5741 5740 5737 5734 5730 5726 5722 5717 5713 5708 5704 5699 5696 5693 5690 5687 5685 5683 5679 5675 5672 5667 5663 5659 5656 5653 5649 5649 5647 5642 5638 5635 5634 5631 5630 5629 5628 5626
5738 5737 5735 5733 5731 5730 5729 5728 5725 5722 5717 5714 5710 5707 5703 5698 5692 5688 5684 5682 5677 5676 5673 5672 5669 5665 5661 5654 5649 5649 5647 5644 5642 5638 5636 5633 5631 5629 5626 5623 5621 5619 5616
5726 5725 5724 5723 5721 5720 5718 5717 5715 5712 5709 5706 5703 5701 5697 5692 5687 5682 5676 5668 5666 5662 5659 5656 5655 5654 5648 5643 5640 5638 5635 5632 5630 5629 5630 5627 5624 5621 5618 5615 5612 5609 5606